Seward, AK

3:22 AM AKDT on March 24, 2017 (GMT -0800)
Seward

Weather History for PAWD - October, 2013

Change the Weather History Date:

Saturday, October 19, 2013

  Actual Average Record
Temperature  
Mean Temperature 45 °F -  
Max Temperature 48 °F 42 °F 55 °F (1957)
Min Temperature 42 °F 33 °F 15 °F (1977)
Degree Days  
Heating Degree Days 20    
Moisture  
Dew Point 42 °F    
Average Humidity 88    
Maximum Humidity 100    
Minimum Humidity 76    
Precipitation  
Precipitation 1.73 in - - ()
Sea Level Pressure  
Sea Level Pressure 29.58 in    
Wind  
Wind Speed 9 mph (South)    
Max Wind Speed 23 mph    
Max Gust Speed 34 mph    
Visibility 7 miles    
Events Rain    
Averages and records for this station are not official NWS values.
T = Trace of Precipitation, MM = Missing Value Source: NWS Daily Summary

Daily Weather History Graph

Daily Weather History Graph

Search for Another Location

Airport or City:

Trip Planner

Search our weather history database for the weather conditions in past years. The results will help you decide how hot, cold, wet, or windy it might be!

Date:

Astronomy

Oct. 19, 2013 Rise Set
Actual Time 8:48 AM AKDT 6:35 PM AKDT
Civil Twilight 8:05 AM AKDT 7:18 PM AKDT
Nautical Twilight 7:17 AM AKDT 8:06 PM AKDT
Astronomical Twilight 6:28 AM AKDT 8:55 PM AKDT
Moon 6:47 PM AKDT (10/19) 9:54 AM AKDT (10/19)
Length of Visible Light 11h 12m
Length of Day
9h 46m
Full, 99% of the Moon is Illuminated
Oct 19
Full
Oct 26
Last Quarter
Nov 3
New
Nov 9
First Quarter
Nov 17
Full

Hourly Weather History & Observations

Time (AKDT) Temp. Windchill Dew Point Humidity Pressure Visibility Wind Dir Wind Speed Gust Speed Precip Events Conditions
12:53 AM 44.1 °F - 39.9 °F 85% 29.69 in 5.0 mi Calm Calm - 0.10 in Rain Rain
1:26 AM 42.8 °F - 41.0 °F 93% 29.67 in 6.0 mi Calm Calm - 0.06 in Rain Rain
1:53 AM 43.0 °F - 41.0 °F 93% 29.66 in 4.0 mi Calm Calm - 0.12 in Rain Rain
2:15 AM 42.8 °F - 41.0 °F 93% 29.64 in 4.0 mi Calm Calm - 0.06 in Rain Rain
2:53 AM 42.1 °F 40.2 °F 41.0 °F 96% 29.60 in 4.0 mi SW 3.5 mph - 0.18 in Rain Rain
3:19 AM 42.8 °F 41.1 °F 41.0 °F 93% 29.56 in 4.0 mi NW 3.5 mph - 0.07 in Rain Rain
3:38 AM 42.8 °F 39.3 °F 39.2 °F 87% 29.54 in 5.0 mi WNW 5.8 mph - 0.11 in Rain Rain
3:53 AM 43.0 °F 38.8 °F 39.9 °F 89% 29.52 in 6.0 mi NW 6.9 mph - 0.14 in Rain Rain
4:53 AM 44.1 °F 40.1 °F 39.9 °F 85% 29.46 in 10.0 mi NNW 6.9 mph - 0.06 in Rain Light Rain
5:53 AM 42.1 °F - 41.0 °F 96% 29.44 in 10.0 mi Calm Calm - 0.06 in Rain Light Rain
6:53 AM 42.1 °F 40.2 °F 41.0 °F 96% 29.45 in 4.0 mi Variable 3.5 mph - 0.04 in Rain Light Rain
7:13 AM 42.8 °F 41.1 °F 42.8 °F 100% 29.45 in 2.0 mi SSE 3.5 mph - 0.05 in Rain Rain
7:21 AM 42.8 °F 40.1 °F 42.8 °F 100% 29.45 in 2.0 mi SSE 4.6 mph - 0.07 in Rain Rain
7:31 AM 42.8 °F - 42.8 °F 100% 29.45 in 1.8 mi Calm Calm - 0.11 in Rain Rain
7:39 AM 42.8 °F 41.1 °F 42.8 °F 100% 29.45 in 2.0 mi SSE 3.5 mph - 0.14 in Rain Rain
7:48 AM 42.8 °F - 42.8 °F 100% 29.45 in 6.0 mi Calm Calm - 0.15 in Rain Light Rain
7:53 AM 43.0 °F 41.3 °F 42.1 °F 97% 29.46 in 7.0 mi SSE 3.5 mph - 0.15 in Rain Light Rain
8:00 AM 42.8 °F 40.1 °F 42.8 °F 100% 29.46 in 10.0 mi South 4.6 mph - 0.00 in Rain Light Rain
8:25 AM 46.4 °F 38.7 °F 42.8 °F 87% 29.47 in 10.0 mi SSE 20.7 mph 34.5 mph 0.00 in   Scattered Clouds
8:53 AM 46.9 °F - 41.0 °F 80% 29.49 in 10.0 mi SSE 18.4 mph 25.3 mph 0.00 in   Mostly Cloudy
9:53 AM 46.9 °F - 42.1 °F 83% 29.51 in 10.0 mi SSE 16.1 mph - 0.01 in Rain Light Rain
10:19 AM 46.4 °F 40.1 °F 42.8 °F 87% 29.51 in 5.0 mi SSE 15.0 mph 20.7 mph 0.02 in Rain Light Rain
10:44 AM 46.4 °F 40.1 °F 42.8 °F 87% 29.52 in 2.0 mi SSW 15.0 mph 20.7 mph 0.09 in Rain Rain
10:53 AM 46.0 °F 40.2 °F 43.0 °F 89% 29.52 in 6.0 mi SSE 12.7 mph 18.4 mph 0.09 in Rain Light Rain
11:53 AM 48.0 °F - 42.1 °F 80% 29.53 in 10.0 mi SSE 17.3 mph 31.1 mph 0.05 in   Overcast
12:26 PM 46.4 °F 38.5 °F 41.0 °F 81% 29.55 in 10.0 mi SSE 21.9 mph 33.4 mph 0.02 in Rain Light Rain
12:50 PM 48.2 °F - 41.0 °F 76% 29.55 in 10.0 mi SSE 19.6 mph 29.9 mph 0.02 in Rain Light Rain
12:53 PM 48.0 °F - 41.0 °F 77% 29.55 in 10.0 mi SSE 23.0 mph 31.1 mph 0.02 in Rain Light Rain
1:19 PM 44.6 °F 35.9 °F 42.8 °F 93% 29.57 in 2.0 mi SSE 23.0 mph 31.1 mph 0.04 in Rain Rain
1:33 PM 44.6 °F 37.8 °F 42.8 °F 93% 29.58 in 3.0 mi SSE 15.0 mph 28.8 mph 0.07 in Rain Rain
1:53 PM 46.0 °F 41.9 °F 43.0 °F 89% 29.58 in 9.0 mi South 8.1 mph - 0.08 in Rain Light Rain
2:50 PM 48.2 °F - 42.8 °F 82% 29.58 in 7.0 mi South 18.4 mph 32.2 mph 0.03 in Rain Light Rain
2:53 PM 46.9 °F - 41.0 °F 80% 29.59 in 7.0 mi SSE 23.0 mph 33.4 mph 0.03 in Rain Light Rain
3:18 PM 48.2 °F - 42.8 °F 82% 29.59 in 10.0 mi SSE 19.6 mph 33.4 mph 0.02 in Rain Light Rain
3:25 PM 48.2 °F - 42.8 °F 82% 29.60 in 10.0 mi SSE 20.7 mph 27.6 mph 0.02 in Rain Light Rain
3:36 PM 48.2 °F - 42.8 °F 82% 29.60 in 10.0 mi SSE 21.9 mph 28.8 mph 0.02 in   Overcast
3:53 PM 46.9 °F - 43.0 °F 86% 29.61 in 4.0 mi South 16.1 mph 28.8 mph 0.03 in Rain Light Rain
4:13 PM 48.2 °F - 42.8 °F 82% 29.61 in 10.0 mi SSE 20.7 mph 27.6 mph 0.01 in   Overcast
4:24 PM 48.2 °F - 42.8 °F 82% 29.60 in 10.0 mi SSE 20.7 mph 29.9 mph 0.01 in   Overcast
4:53 PM 46.9 °F - 41.0 °F 80% 29.62 in 6.0 mi SSE 15.0 mph 23.0 mph 0.02 in Rain Light Rain
5:16 PM 44.6 °F 36.1 °F 41.0 °F 87% 29.63 in 1.8 mi SSE 21.9 mph 29.9 mph 0.06 in Rain Heavy Rain
5:24 PM 44.6 °F 36.9 °F 42.8 °F 93% 29.63 in 3.0 mi SSE 18.4 mph 29.9 mph 0.08 in Rain Light Rain
5:44 PM 46.4 °F 40.7 °F 39.2 °F 76% 29.64 in 10.0 mi SSE 12.7 mph 20.7 mph 0.08 in Rain Light Rain
5:53 PM 46.9 °F - 41.0 °F 80% 29.64 in 9.0 mi South 8.1 mph 21.9 mph 0.09 in Rain Light Rain
6:53 PM 46.0 °F 41.4 °F 43.0 °F 89% 29.64 in 5.0 mi SSE 9.2 mph - 0.09 in Rain Light Rain
7:53 PM 46.9 °F - 44.1 °F 90% 29.66 in 6.0 mi South 15.0 mph 27.6 mph 0.08 in Rain Light Rain
8:02 PM 46.4 °F 39.5 °F 42.8 °F 87% 29.66 in 2.5 mi South 17.3 mph 24.2 mph 0.08 in Rain Heavy Rain
8:15 PM 46.4 °F 41.9 °F 42.8 °F 87% 29.67 in 6.0 mi South 9.2 mph - 0.11 in Rain Light Rain
8:53 PM 46.9 °F - 44.1 °F 90% 29.68 in 6.0 mi SSE 19.6 mph 27.6 mph 0.15 in Rain Light Rain
9:53 PM 46.9 °F - 44.1 °F 90% 29.70 in 8.0 mi South 10.4 mph 18.4 mph 0.06 in Rain Light Rain
10:21 PM 48.2 °F - 42.8 °F 82% 29.71 in 10.0 mi SSE 17.3 mph 28.8 mph 0.00 in Rain Light Rain
10:45 PM 46.4 °F 40.7 °F 42.8 °F 87% 29.72 in 10.0 mi South 12.7 mph 19.6 mph 0.00 in Rain Light Rain
10:53 PM 48.0 °F - 42.1 °F 80% 29.72 in 10.0 mi SSE 16.1 mph 23.0 mph 0.00 in Rain Light Rain
11:04 PM 46.4 °F 39.2 °F 42.8 °F 87% 29.72 in 9.0 mi SSE 18.4 mph 25.3 mph 0.00 in Rain Light Rain
11:53 PM 46.9 °F - 43.0 °F 86% 29.74 in 9.0 mi SSE 19.6 mph 28.8 mph 0.08 in Rain Light Rain